Simultaneous Nadir Overpasses (SNOs) Predictions

Prediction of SNOs between GOES-14 and NOAA-20 Satellite Orbit:

Table of predicted SNOs for the next 14.0 days since TLE Epoch: 8/5/2023
Index Date Time (GOES-14) GOES-14 Lat,Lon NOAA-20 Lat,Lon Distance(km) Time Diff (sec)
1 08/05/2023 08:34:20 -0.37,-108.65 -0.75,-106.96 192.24 80
2 08/06/2023 20:53:36 0.40,-108.55 -0.42,-112.27 423.96 80
3 08/07/2023 20:37:31 0.39,-108.55 0.55,-107.73 93.03 80
4 08/09/2023 08:56:40 -0.42,-108.66 0.53,-113.02 496.97 80
5 08/10/2023 08:40:35 -0.41,-108.66 -0.45,-108.48 19.53 80
6 08/12/2023 20:41:06 0.43,-108.55 0.26,-109.25 80.75 80
7 08/13/2023 20:25:01 0.42,-108.55 1.30,-104.73 436.00 80
8 08/15/2023 08:44:09 -0.45,-108.66 -0.16,-110.01 153.70 80
9 08/16/2023 08:28:04 -0.44,-108.66 -1.14,-105.47 362.97 80
10 08/17/2023 20:47:20 0.47,-108.55 -0.01,-110.78 253.59 80
11 08/18/2023 20:31:15 0.46,-108.56 0.98,-106.25 263.44 80
